status,avgMeasuredTime,avgSpeed,extID,medianMeasuredTime,TIMESTAMP,vehicleCount,_id,REPORT_ID
OK,100,42,807,100,2014-08-01T07:55:00,8,20746531,197679
OK,90,47,807,90,2014-08-01T08:00:00,7,20746862,197679
OK,112,38,807,112,2014-08-01T08:05:00,10,20747311,197679
OK,122,34,807,122,2014-08-01T08:10:00,10,20747684,197679
OK,91,46,807,91,2014-08-01T08:15:00,7,20748133,197679
OK,100,42,807,100,2014-08-01T08:20:00,7,20748582,197679
OK,91,46,807,91,2014-08-01T08:25:00,10,20749031,197679
OK,82,51,807,82,2014-08-01T08:30:00,7,20749480,197679
OK,108,39,807,108,2014-08-01T08:35:00,6,20749929,197679
OK,108,39,807,108,2014-08-01T08:40:00,2,20750378,197679
OK,63,67,807,63,2014-08-01T08:45:00,5,20750827,197679
OK,132,32,807,132,2014-08-01T08:50:00,4,20751276,197679
OK,113,37,807,113,2014-08-01T08:55:00,6,20751725,197679
OK,104,40,807,104,2014-08-01T09:00:00,8,20752174,197679
OK,116,36,807,116,2014-08-01T09:05:00,5,20752623,197679
OK,148,28,807,148,2014-08-01T09:10:00,1,20753072,197679
OK,111,38,807,111,2014-08-01T09:15:00,6,20753521,197679
OK,120,35,807,120,2014-08-01T09:20:00,4,20753970,197679
OK,100,42,807,100,2014-08-01T09:25:00,8,20754419,197679
OK,98,43,807,98,2014-08-01T09:30:00,14,20754868,197679
OK,112,38,807,112,2014-08-01T09:35:00,8,20755317,197679
OK,123,34,807,123,2014-08-01T09:40:00,3,20755766,197679
OK,122,34,807,122,2014-08-01T09:45:00,7,20756215,197679
OK,138,30,807,138,2014-08-01T09:50:00,10,20756664,197679
OK,79,53,807,79,2014-08-01T09:55:00,13,20757113,197679
OK,77,55,807,77,2014-08-01T10:00:00,8,20757562,197679
OK,112,38,807,112,2014-08-01T10:05:00,9,20758011,197679
OK,121,35,807,121,2014-08-01T10:10:00,14,20758460,197679
OK,130,32,807,130,2014-08-01T10:15:00,17,20758909,197679
OK,139,30,807,139,2014-08-01T10:20:00,13,20759358,197679
OK,149,28,807,149,2014-08-01T10:25:00,4,20759807,197679
OK,96,44,807,96,2014-08-01T10:30:00,8,20760256,197679
OK,103,41,807,103,2014-08-01T10:35:00,11,20760705,197679
OK,100,42,807,100,2014-08-01T10:40:00,13,20761154,197679
OK,96,44,807,96,2014-08-01T10:45:00,10,20761603,197679
OK,117,36,807,117,2014-08-01T10:50:00,12,20762052,197679
OK,112,38,807,112,2014-08-01T10:55:00,11,20762501,197679
OK,113,37,807,113,2014-08-01T11:00:00,6,20762950,197679
OK,123,34,807,123,2014-08-01T11:05:00,7,20763399,197679
OK,107,39,807,107,2014-08-01T11:10:00,6,20763848,197679
OK,109,39,807,109,2014-08-01T11:15:00,3,20764296,197679
OK,124,34,807,124,2014-08-01T11:20:00,8,20764745,197679
OK,122,34,807,122,2014-08-01T11:25:00,8,20765194,197679
OK,103,41,807,103,2014-08-01T11:30:00,6,20765643,197679
OK,96,44,807,96,2014-08-01T11:35:00,7,20766092,197679
OK,102,41,807,102,2014-08-01T11:40:00,13,20766541,197679
OK,91,46,807,91,2014-08-01T11:45:00,14,20766990,197679
OK,72,59,807,72,2014-08-01T11:50:00,8,20767439,197679
OK,125,34,807,125,2014-08-01T11:55:00,6,20767888,197679
OK,144,29,807,144,2014-08-01T12:00:00,8,20768337,197679
OK,100,42,807,100,2014-08-01T12:05:00,9,20768786,197679
OK,103,41,807,103,2014-08-01T12:10:00,12,20769235,197679
OK,122,34,807,122,2014-08-01T12:15:00,12,20769684,197679
OK,100,42,807,100,2014-08-01T12:20:00,14,20770133,197679
OK,100,42,807,100,2014-08-01T12:25:00,16,20770582,197679
OK,88,48,807,88,2014-08-01T12:30:00,10,20771031,197679
OK,104,40,807,104,2014-08-01T12:35:00,10,20771480,197679
OK,117,36,807,117,2014-08-01T12:40:00,11,20771929,197679
OK,76,56,807,76,2014-08-01T12:45:00,5,20772378,197679
OK,102,41,807,102,2014-08-01T12:50:00,4,20772827,197679
OK,110,38,807,110,2014-08-01T12:55:00,12,20773276,197679
OK,112,38,807,112,2014-08-01T13:00:00,13,20773725,197679
OK,123,34,807,123,2014-08-01T13:05:00,11,20774174,197679
OK,123,34,807,123,2014-08-01T13:10:00,11,20774623,197679
OK,142,29,807,142,2014-08-01T13:15:00,8,20775072,197679
OK,142,29,807,142,2014-08-01T13:20:00,8,20775521,197679
OK,103,41,807,103,2014-08-01T13:25:00,5,20775970,197679
OK,99,43,807,99,2014-08-01T13:30:00,5,20776419,197679
OK,118,36,807,118,2014-08-01T13:35:00,3,20776868,197679
OK,94,45,807,94,2014-08-01T13:40:00,7,20777317,197679
OK,93,45,807,93,2014-08-01T13:45:00,8,20777766,197679
OK,111,38,807,111,2014-08-01T13:50:00,2,20778215,197679
OK,115,37,807,115,2014-08-01T13:55:00,3,20778664,197679
OK,113,37,807,113,2014-08-01T14:00:00,3,20779113,197679
OK,93,45,807,93,2014-08-01T14:05:00,5,20779562,197679
OK,118,36,807,118,2014-08-01T14:10:00,6,20780011,197679
OK,183,23,807,183,2014-08-01T14:15:00,2,20780460,197679
OK,107,39,807,107,2014-08-01T14:20:00,1,20780909,197679
OK,117,36,807,117,2014-08-01T14:25:00,4,20781358,197679
OK,124,34,807,124,2014-08-01T14:30:00,5,20781807,197679
OK,108,39,807,108,2014-08-01T14:35:00,4,20782256,197679
OK,119,35,807,119,2014-08-01T14:40:00,12,20782705,197679
OK,119,35,807,119,2014-08-01T14:45:00,11,20783154,197679
OK,117,36,807,117,2014-08-01T14:50:00,3,20783603,197679
OK,100,42,807,100,2014-08-01T14:55:00,6,20784052,197679
OK,112,38,807,112,2014-08-01T15:00:00,5,20784501,197679
OK,92,46,807,92,2014-08-01T15:05:00,5,20784950,197679
OK,96,44,807,96,2014-08-01T15:10:00,6,20785399,197679
OK,106,40,807,106,2014-08-01T15:15:00,7,20785848,197679
OK,96,44,807,96,2014-08-01T15:20:00,5,20786297,197679
OK,109,39,807,109,2014-08-01T15:25:00,3,20786746,197679
OK,121,35,807,121,2014-08-01T15:30:00,2,20787195,197679
OK,120,35,807,120,2014-08-01T15:35:00,3,20787644,197679
OK,120,35,807,120,2014-08-01T15:40:00,7,20788093,197679
OK,107,39,807,107,2014-08-01T15:45:00,8,20788542,197679
OK,89,47,807,89,2014-08-01T15:50:00,4,20788991,197679
OK,103,41,807,103,2014-08-01T15:55:00,4,20789440,197679
OK,84,50,807,84,2014-08-01T16:00:00,3,20789889,197679
OK,76,56,807,76,2014-08-01T16:05:00,6,20790338,197679
OK,78,54,807,78,2014-08-01T16:10:00,5,20790787,197679
OK,89,47,807,89,2014-08-01T16:15:00,2,20791236,197679
OK,96,44,807,96,2014-08-01T16:20:00,2,20791685,197679
OK,102,41,807,102,2014-08-01T16:25:00,6,20792134,197679
OK,105,40,807,105,2014-08-01T16:30:00,5,20792583,197679
OK,60,70,807,60,2014-08-01T16:35:00,0,20793032,197679
OK,86,49,807,86,2014-08-01T16:40:00,3,20793481,197679
OK,86,49,807,86,2014-08-01T16:45:00,4,20793930,197679
OK,104,40,807,104,2014-08-01T16:50:00,5,20794379,197679
OK,101,42,807,101,2014-08-01T16:55:00,6,20794828,197679
OK,97,43,807,97,2014-08-01T17:00:00,4,20795277,197679
OK,94,45,807,94,2014-08-01T17:05:00,7,20795726,197679
OK,92,46,807,92,2014-08-01T17:10:00,8,20796175,197679
OK,85,50,807,85,2014-08-01T17:15:00,6,20796624,197679
OK,56,76,807,56,2014-08-01T17:20:00,2,20797073,197679
OK,56,76,807,56,2014-08-01T17:25:00,0,20797522,197679
OK,56,76,807,56,2014-08-01T17:30:00,0,20797971,197679
OK,65,65,807,65,2014-08-01T17:35:00,2,20798420,197679
OK,58,73,807,58,2014-08-01T17:40:00,1,20798869,197679
OK,99,43,807,99,2014-08-01T17:45:00,1,20799318,197679
OK,99,43,807,99,2014-08-01T17:50:00,1,20799767,197679
OK,77,55,807,77,2014-08-01T17:55:00,2,20800216,197679
OK,80,53,807,80,2014-08-01T18:00:00,3,20800665,197679
OK,135,31,807,135,2014-08-01T18:05:00,1,20801114,197679
OK,159,26,807,159,2014-08-01T18:10:00,1,20801563,197679
OK,159,26,807,159,2014-08-01T18:15:00,1,20802012,197679
OK,159,26,807,159,2014-08-01T18:20:00,0,20802461,197679
OK,159,26,807,159,2014-08-01T18:25:00,0,20802910,197679
OK,102,41,807,102,2014-08-01T18:30:00,2,20803359,197679
OK,113,37,807,113,2014-08-01T18:35:00,3,20803808,197679
OK,128,33,807,128,2014-08-01T18:40:00,3,20804257,197679
OK,131,32,807,131,2014-08-01T18:45:00,2,20804706,197679
OK,89,47,807,89,2014-08-01T18:50:00,1,20805155,197679
OK,89,47,807,89,2014-08-01T18:55:00,3,20805604,197679
OK,125,34,807,125,2014-08-01T19:00:00,5,20806053,197679
OK,56,76,807,56,2014-08-01T19:05:00,1,20806502,197679
OK,56,76,807,56,2014-08-01T19:10:00,0,20806951,197679
OK,99,43,807,99,2014-08-01T19:15:00,2,20807400,197679
OK,99,43,807,99,2014-08-01T19:20:00,4,20807849,197679
OK,71,59,807,71,2014-08-01T19:25:00,3,20808298,197679
OK,71,59,807,71,2014-08-01T19:30:00,1,20808747,197679
OK,134,31,807,134,2014-08-01T19:35:00,1,20809196,197679
OK,91,46,807,91,2014-08-01T19:40:00,5,20809645,197679
OK,91,46,807,91,2014-08-01T19:45:00,6,20810094,197679
OK,88,48,807,88,2014-08-01T19:50:00,2,20810543,197679
OK,108,39,807,108,2014-08-01T19:55:00,2,20810992,197679
OK,90,47,807,90,2014-08-01T22:00:00,0,20816721,197679
OK,90,47,807,90,2014-08-01T22:05:00,0,20817170,197679
OK,90,47,807,90,2014-08-01T22:10:00,0,20817492,197679
OK,69,61,807,69,2014-08-01T22:20:00,2,20818211,197679
OK,68,62,807,68,2014-08-02T00:00:00,0,20823160,197679
OK,121,35,807,121,2014-08-02T00:05:00,1,20823609,197679
OK,120,35,807,120,2014-08-02T00:10:00,1,20824058,197679
OK,120,35,807,120,2014-08-02T00:15:00,0,20824507,197679
OK,56,76,807,56,2014-08-02T00:20:00,1,20824956,197679
OK,56,76,807,56,2014-08-02T00:25:00,0,20825405,197679
OK,56,76,807,56,2014-08-02T00:30:00,0,20825854,197679
OK,83,51,807,83,2014-08-02T00:35:00,0,20826303,197679
OK,83,51,807,83,2014-08-02T00:40:00,0,20826752,197679
OK,83,51,807,83,2014-08-02T00:45:00,0,20827201,197679
OK,53,80,807,53,2014-08-02T00:50:00,1,20827650,197679
OK,53,80,807,53,2014-08-02T00:55:00,1,20828099,197679
OK,53,80,807,53,2014-08-02T01:00:00,0,20828548,197679
OK,53,80,807,53,2014-08-02T01:05:00,0,20828997,197679
OK,53,80,807,53,2014-08-02T01:10:00,0,20829446,197679
OK,47,90,807,47,2014-08-02T01:15:00,1,20829895,197679
OK,47,90,807,47,2014-08-02T01:20:00,1,20830344,197679
OK,47,90,807,47,2014-08-02T01:25:00,0,20830793,197679
OK,47,90,807,47,2014-08-02T01:30:00,0,20831242,197679
OK,47,90,807,47,2014-08-02T01:35:00,0,20831691,197679
OK,47,90,807,47,2014-08-02T01:40:00,0,20832140,197679
OK,47,90,807,47,2014-08-02T01:45:00,0,20832589,197679
OK,47,90,807,47,2014-08-02T01:50:00,0,20833038,197679
OK,47,90,807,47,2014-08-02T01:55:00,0,20833487,197679
OK,47,90,807,47,2014-08-02T02:00:00,0,20833936,197679
OK,47,90,807,47,2014-08-02T02:05:00,0,20834385,197679
OK,47,90,807,47,2014-08-02T02:10:00,0,20834834,197679
OK,47,90,807,47,2014-08-02T02:15:00,0,20835283,197679
OK,47,90,807,47,2014-08-02T02:20:00,0,20835732,197679
OK,50,85,807,50,2014-08-02T02:25:00,1,20836181,197679
OK,50,85,807,50,2014-08-02T02:30:00,1,20836630,197679
OK,50,85,807,50,2014-08-02T02:35:00,0,20837079,197679
OK,49,86,807,49,2014-08-02T02:40:00,1,20837528,197679
OK,49,86,807,49,2014-08-02T02:45:00,0,20837977,197679
OK,49,86,807,49,2014-08-02T02:50:00,0,20838426,197679
OK,49,86,807,49,2014-08-02T02:55:00,0,20838875,197679
OK,49,86,807,49,2014-08-02T03:00:00,0,20839324,197679
OK,49,86,807,49,2014-08-02T03:05:00,0,20839773,197679
OK,49,86,807,49,2014-08-02T03:10:00,0,20840222,197679
OK,49,86,807,49,2014-08-02T03:15:00,0,20840671,197679
OK,49,86,807,49,2014-08-02T03:20:00,0,20841120,197679
OK,49,86,807,49,2014-08-02T03:25:00,0,20841569,197679
OK,49,86,807,49,2014-08-02T03:30:00,0,20842018,197679
OK,46,92,807,46,2014-08-02T03:35:00,1,20842467,197679
OK,62,68,807,62,2014-08-02T03:40:00,1,20842916,197679
OK,62,68,807,62,2014-08-02T03:45:00,0,20843365,197679
OK,95,44,807,95,2014-08-02T03:50:00,1,20843814,197679
OK,72,59,807,72,2014-08-02T03:55:00,2,20844263,197679
OK,45,94,807,45,2014-08-02T04:10:00,1,20845151,197679
OK,45,94,807,45,2014-08-02T04:20:00,0,20845709,197679
OK,60,70,807,60,2014-08-02T04:25:00,1,20846265,197679
OK,77,55,807,77,2014-08-02T04:35:00,2,20846632,197679
OK,86,49,807,86,2014-08-02T04:40:00,0,20847009,197679
OK,75,56,807,75,2014-08-02T04:45:00,1,20847274,197679
OK,75,56,807,75,2014-08-02T04:50:00,0,20847640,197679
OK,76,56,807,76,2014-08-02T05:20:00,0,20849411,197679
OK,102,41,807,102,2014-08-02T05:40:00,0,20850501,197679
OK,102,41,807,102,2014-08-02T05:50:00,0,20851160,197679
OK,54,78,807,54,2014-08-02T06:00:00,1,20851717,197679
OK,55,77,807,55,2014-08-02T06:05:00,1,20852166,197679
OK,55,77,807,55,2014-08-02T06:10:00,0,20852615,197679
OK,55,77,807,55,2014-08-02T06:15:00,0,20853064,197679
OK,55,77,807,55,2014-08-02T06:20:00,0,20853513,197679
OK,122,34,807,122,2014-08-02T06:25:00,1,20853962,197679
OK,122,34,807,122,2014-08-02T06:30:00,2,20854411,197679
OK,122,34,807,122,2014-08-02T06:35:00,0,20854860,197679
OK,72,59,807,72,2014-08-02T06:40:00,1,20855309,197679
OK,105,40,807,105,2014-08-02T06:45:00,1,20855758,197679
OK,95,44,807,95,2014-08-02T06:50:00,2,20856207,197679
OK,86,49,807,86,2014-08-02T06:55:00,0,20856656,197679
OK,86,49,807,86,2014-08-02T07:00:00,0,20857105,197679
OK,86,49,807,86,2014-08-02T07:05:00,0,20857554,197679
OK,51,83,807,51,2014-08-02T07:10:00,1,20858003,197679
OK,51,83,807,51,2014-08-02T07:15:00,1,20858452,197679
OK,78,54,807,78,2014-08-02T07:20:00,1,20858901,197679
OK,78,54,807,78,2014-08-02T07:25:00,1,20859350,197679
OK,80,53,807,80,2014-08-02T07:30:00,6,20859799,197679
OK,75,56,807,75,2014-08-02T07:35:00,6,20860248,197679
OK,54,78,807,54,2014-08-02T07:40:00,1,20860697,197679
OK,84,50,807,84,2014-08-02T07:45:00,2,20861146,197679
OK,84,50,807,84,2014-08-02T07:50:00,2,20861595,197679
OK,82,51,807,82,2014-08-02T07:55:00,3,20862044,197679
OK,82,51,807,82,2014-08-02T08:00:00,3,20862493,197679
OK,91,46,807,91,2014-08-02T08:05:00,1,20862942,197679
OK,104,40,807,104,2014-08-02T08:10:00,2,20863391,197679
OK,118,36,807,118,2014-08-02T08:15:00,2,20863840,197679
OK,118,36,807,118,2014-08-02T08:20:00,1,20864289,197679
OK,66,64,807,66,2014-08-02T08:25:00,2,20864738,197679
OK,69,61,807,69,2014-08-02T08:30:00,3,20865187,197679
OK,87,48,807,87,2014-08-02T08:35:00,5,20865636,197679
OK,83,51,807,83,2014-08-02T08:40:00,6,20866085,197679
OK,92,46,807,92,2014-08-02T08:45:00,3,20866534,197679
OK,75,56,807,75,2014-08-02T08:50:00,2,20866983,197679
OK,58,73,807,58,2014-08-02T08:55:00,1,20867432,197679
OK,58,73,807,58,2014-08-02T09:00:00,0,20867881,197679
OK,89,47,807,89,2014-08-02T09:05:00,2,20868330,197679
OK,98,43,807,98,2014-08-02T09:10:00,4,20868779,197679
OK,127,33,807,127,2014-08-02T09:15:00,7,20869228,197679
OK,128,33,807,128,2014-08-02T09:20:00,8,20869677,197679
OK,118,36,807,118,2014-08-02T09:25:00,7,20870126,197679
OK,101,42,807,101,2014-08-02T09:30:00,6,20870575,197679
OK,101,42,807,101,2014-08-02T09:35:00,4,20871024,197679
OK,82,51,807,82,2014-08-02T09:40:00,5,20871473,197679
OK,105,40,807,105,2014-08-02T09:45:00,4,20871922,197679
OK,129,33,807,129,2014-08-02T09:50:00,5,20872371,197679
OK,79,53,807,79,2014-08-02T09:55:00,5,20872820,197679
OK,106,40,807,106,2014-08-02T10:00:00,7,20873269,197679
OK,109,39,807,109,2014-08-02T10:05:00,5,20873718,197679
OK,104,40,807,104,2014-08-02T10:10:00,1,20874167,197679
OK,86,49,807,86,2014-08-02T10:15:00,5,20874616,197679
OK,82,51,807,82,2014-08-02T10:20:00,8,20875065,197679
OK,70,60,807,70,2014-08-02T10:25:00,4,20875514,197679
OK,109,39,807,109,2014-08-02T10:30:00,0,20875963,197679
OK,82,51,807,82,2014-08-02T10:35:00,6,20876412,197679
OK,94,45,807,94,2014-08-02T10:40:00,8,20876861,197679
OK,131,32,807,131,2014-08-02T10:45:00,3,20877310,197679
OK,77,55,807,77,2014-08-02T10:50:00,3,20877759,197679
OK,77,55,807,77,2014-08-02T10:55:00,3,20878208,197679
OK,155,27,807,155,2014-08-02T11:00:00,3,20878657,197679
OK,148,28,807,148,2014-08-02T11:05:00,4,20879106,197679
OK,101,42,807,101,2014-08-02T11:10:00,4,20879555,197679
OK,111,38,807,111,2014-08-02T11:15:00,3,20880004,197679
OK,113,37,807,113,2014-08-02T11:20:00,2,20880453,197679
OK,104,40,807,104,2014-08-02T11:25:00,4,20880902,197679
OK,97,43,807,97,2014-08-02T11:30:00,7,20881351,197679
OK,97,43,807,97,2014-08-02T11:35:00,9,20881800,197679
OK,87,48,807,87,2014-08-02T11:40:00,7,20882249,197679
OK,54,78,807,54,2014-08-02T11:45:00,3,20882698,197679
OK,54,78,807,54,2014-08-02T11:50:00,1,20883147,197679
OK,54,78,807,54,2014-08-02T11:55:00,0,20883596,197679
OK,54,78,807,54,2014-08-02T12:00:00,0,20884045,197679
OK,52,81,807,52,2014-08-02T12:05:00,1,20884494,197679
OK,79,53,807,79,2014-08-02T12:10:00,2,20884943,197679
OK,134,31,807,134,2014-08-02T12:15:00,2,20885392,197679
OK,123,34,807,123,2014-08-02T12:20:00,4,20885841,197679
OK,114,37,807,114,2014-08-02T12:25:00,6,20886290,197679
OK,111,38,807,111,2014-08-02T12:30:00,6,20886739,197679
OK,104,40,807,104,2014-08-02T12:35:00,3,20887188,197679
OK,122,34,807,122,2014-08-02T12:40:00,6,20887637,197679
OK,123,34,807,123,2014-08-02T12:45:00,7,20888086,197679
OK,70,60,807,70,2014-08-02T12:50:00,3,20888535,197679
OK,70,60,807,70,2014-08-02T12:55:00,3,20888984,197679
OK,108,39,807,108,2014-08-02T13:00:00,3,20889433,197679
OK,59,72,807,59,2014-08-02T13:05:00,1,20889882,197679
OK,61,69,807,61,2014-08-02T13:10:00,3,20890331,197679
OK,91,46,807,91,2014-08-02T13:15:00,5,20890780,197679
OK,92,46,807,92,2014-08-02T13:20:00,4,20891229,197679
OK,73,58,807,73,2014-08-02T13:25:00,2,20891678,197679
OK,97,43,807,97,2014-08-02T13:30:00,2,20892127,197679
OK,110,38,807,110,2014-08-02T13:35:00,1,20892576,197679
OK,110,38,807,110,2014-08-02T13:40:00,3,20893025,197679
OK,88,48,807,88,2014-08-02T13:45:00,4,20893474,197679
OK,88,48,807,88,2014-08-02T13:50:00,4,20893923,197679
OK,105,40,807,105,2014-08-02T13:55:00,4,20894372,197679
OK,117,36,807,117,2014-08-02T14:00:00,4,20894821,197679
OK,141,30,807,141,2014-08-02T14:05:00,1,20895270,197679
OK,97,43,807,97,2014-08-02T14:10:00,2,20895719,197679
OK,110,38,807,110,2014-08-02T14:15:00,1,20896168,197679
OK,83,51,807,83,2014-08-02T14:20:00,2,20896617,197679
OK,104,40,807,104,2014-08-02T14:25:00,4,20897066,197679
OK,107,39,807,107,2014-08-02T14:30:00,3,20897515,197679
OK,85,50,807,85,2014-08-02T14:35:00,3,20897964,197679
OK,75,56,807,75,2014-08-02T14:40:00,3,20898413,197679
OK,71,59,807,71,2014-08-02T14:45:00,3,20898862,197679
OK,70,60,807,70,2014-08-02T14:50:00,2,20899311,197679
OK,63,67,807,63,2014-08-02T14:55:00,1,20899760,197679
OK,66,64,807,66,2014-08-02T15:00:00,2,20900209,197679
OK,70,60,807,70,2014-08-02T15:05:00,3,20900658,197679
OK,83,51,807,83,2014-08-02T15:10:00,2,20901107,197679
OK,83,51,807,83,2014-08-02T15:15:00,0,20901556,197679
OK,83,51,807,83,2014-08-02T15:20:00,0,20902005,197679
OK,119,35,807,119,2014-08-02T15:25:00,1,20902454,197679
OK,91,46,807,91,2014-08-02T15:30:00,2,20902903,197679
OK,48,88,807,48,2014-08-02T15:35:00,3,20903352,197679
OK,86,49,807,86,2014-08-02T15:40:00,4,20903801,197679
OK,127,33,807,127,2014-08-02T15:45:00,4,20904250,197679
OK,65,65,807,65,2014-08-02T15:50:00,5,20904699,197679
OK,65,65,807,65,2014-08-02T15:55:00,5,20905148,197679
OK,80,53,807,80,2014-08-02T16:00:00,3,20905597,197679
OK,74,57,807,74,2014-08-02T16:05:00,2,20906046,197679
OK,69,61,807,69,2014-08-02T16:10:00,1,20906495,197679
OK,69,61,807,69,2014-08-02T16:15:00,0,20906944,197679
OK,113,37,807,113,2014-08-02T16:20:00,1,20907393,197679
OK,113,37,807,113,2014-08-02T16:25:00,1,20907842,197679
OK,77,55,807,77,2014-08-02T16:30:00,1,20908291,197679
OK,79,53,807,79,2014-08-02T16:35:00,5,20908740,197679
OK,82,51,807,82,2014-08-02T16:40:00,6,20909189,197679
OK,86,49,807,86,2014-08-02T16:45:00,3,20909638,197679
OK,118,36,807,118,2014-08-02T16:50:00,4,20910087,197679
OK,130,32,807,130,2014-08-02T16:55:00,2,20910536,197679
OK,114,37,807,114,2014-08-02T17:00:00,1,20910985,197679
OK,87,48,807,87,2014-08-02T17:05:00,2,20911434,197679
OK,85,50,807,85,2014-08-02T17:10:00,2,20911883,197679
OK,110,38,807,110,2014-08-02T17:15:00,1,20912332,197679
OK,101,42,807,101,2014-08-02T17:20:00,1,20912781,197679
OK,101,42,807,101,2014-08-02T17:25:00,1,20913230,197679
OK,101,42,807,101,2014-08-02T17:30:00,0,20913679,197679
OK,69,61,807,69,2014-08-02T17:35:00,1,20914128,197679
OK,69,61,807,69,2014-08-02T17:40:00,2,20914577,197679
OK,70,60,807,70,2014-08-02T17:45:00,1,20915026,197679
OK,70,60,807,70,2014-08-02T17:50:00,0,20915475,197679
OK,70,60,807,70,2014-08-02T17:55:00,0,20915924,197679
OK,70,60,807,70,2014-08-02T18:00:00,0,20916373,197679
OK,136,31,807,136,2014-08-02T18:05:00,1,20916822,197679
OK,103,41,807,103,2014-08-02T18:10:00,2,20917271,197679
OK,73,58,807,73,2014-08-02T18:15:00,2,20917720,197679
OK,77,55,807,77,2014-08-02T18:20:00,2,20918169,197679
OK,79,53,807,79,2014-08-02T18:25:00,1,20918618,197679
OK,81,52,807,81,2014-08-02T18:30:00,1,20919067,197679
OK,81,52,807,81,2014-08-02T18:35:00,1,20919516,197679
OK,97,43,807,97,2014-08-02T18:40:00,1,20919965,197679
OK,89,47,807,89,2014-08-02T18:45:00,5,20920414,197679
OK,82,51,807,82,2014-08-02T18:50:00,5,20920863,197679
OK,71,59,807,71,2014-08-02T18:55:00,1,20921312,197679
OK,71,59,807,71,2014-08-02T19:00:00,0,20921761,197679
OK,71,59,807,71,2014-08-02T19:05:00,0,20922210,197679
OK,71,59,807,71,2014-08-02T19:10:00,0,20922659,197679
OK,68,62,807,68,2014-08-02T19:15:00,1,20923108,197679
OK,87,48,807,87,2014-08-02T19:20:00,2,20923557,197679
OK,107,39,807,107,2014-08-02T19:25:00,2,20924006,197679
OK,84,50,807,84,2014-08-02T19:30:00,2,20924455,197679
OK,87,48,807,87,2014-08-02T19:35:00,1,20924904,197679
OK,50,85,807,50,2014-08-02T19:40:00,1,20925353,197679
OK,61,69,807,61,2014-08-02T19:45:00,2,20925802,197679
OK,67,63,807,67,2014-08-02T19:50:00,1,20926251,197679
OK,67,63,807,67,2014-08-02T19:55:00,0,20926700,197679
OK,60,70,807,60,2014-08-02T20:00:00,2,20927149,197679
OK,68,62,807,68,2014-08-02T20:05:00,3,20927598,197679
OK,82,51,807,82,2014-08-02T20:10:00,2,20928047,197679
OK,68,62,807,68,2014-08-02T20:15:00,1,20928496,197679
OK,98,43,807,98,2014-08-02T20:20:00,1,20928945,197679
OK,98,43,807,98,2014-08-02T20:25:00,1,20929394,197679
OK,58,73,807,58,2014-08-02T20:30:00,1,20929843,197679
OK,68,62,807,68,2014-08-02T20:35:00,3,20930292,197679
OK,68,62,807,68,2014-08-02T20:40:00,1,20930741,197679
OK,112,38,807,112,2014-08-02T20:45:00,1,20931190,197679
OK,89,47,807,89,2014-08-02T20:50:00,2,20931639,197679
OK,73,58,807,73,2014-08-02T20:55:00,2,20932088,197679
OK,82,51,807,82,2014-08-02T21:00:00,1,20932537,197679
OK,89,47,807,89,2014-08-02T21:05:00,2,20932986,197679
OK,104,40,807,104,2014-08-02T21:10:00,2,20933435,197679
OK,124,34,807,124,2014-08-02T21:15:00,1,20933884,197679
OK,146,29,807,146,2014-08-02T21:20:00,2,20934333,197679
OK,125,34,807,125,2014-08-02T21:25:00,3,20934782,197679
OK,86,49,807,86,2014-08-02T21:30:00,1,20935231,197679
OK,86,49,807,86,2014-08-02T21:35:00,0,20935680,197679
OK,86,49,807,86,2014-08-02T21:40:00,0,20936129,197679
OK,86,49,807,86,2014-08-02T21:45:00,0,20936578,197679
OK,86,49,807,86,2014-08-02T21:50:00,0,20937027,197679
OK,55,77,807,55,2014-08-02T21:55:00,3,20937476,197679
OK,53,80,807,53,2014-08-02T22:00:00,0,20937925,197679
OK,52,81,807,52,2014-08-02T22:05:00,0,20938374,197679
OK,96,44,807,96,2014-08-02T22:10:00,1,20938823,197679
OK,96,44,807,96,2014-08-02T22:15:00,1,20939272,197679
OK,73,58,807,73,2014-08-02T22:20:00,1,20939721,197679
OK,73,58,807,73,2014-08-02T22:25:00,1,20940170,197679
OK,88,48,807,88,2014-08-02T22:30:00,2,20940619,197679
OK,77,55,807,77,2014-08-02T22:35:00,2,20941068,197679
OK,90,47,807,90,2014-08-02T22:40:00,2,20941517,197679
OK,116,36,807,116,2014-08-02T22:45:00,0,20941966,197679
OK,54,78,807,54,2014-08-02T22:50:00,1,20942415,197679
OK,54,78,807,54,2014-08-02T22:55:00,1,20942864,197679
OK,69,61,807,69,2014-08-02T23:00:00,1,20943313,197679
OK,89,47,807,89,2014-08-02T23:10:00,2,20943762,197679
OK,74,57,807,74,2014-08-02T23:15:00,3,20944211,197679
OK,74,57,807,74,2014-08-02T23:20:00,1,20944660,197679
OK,74,57,807,74,2014-08-02T23:25:00,0,20945109,197679
OK,74,57,807,74,2014-08-02T23:30:00,0,20945558,197679
OK,74,57,807,74,2014-08-02T23:35:00,0,20946007,197679
OK,74,57,807,74,2014-08-02T23:40:00,0,20946456,197679
OK,74,57,807,74,2014-08-02T23:45:00,0,20946905,197679
OK,74,57,807,74,2014-08-02T23:50:00,0,20947354,197679
OK,74,57,807,74,2014-08-02T23:55:00,0,20947803,197679
OK,74,57,807,74,2014-08-03T00:00:00,0,20948252,197679
OK,74,57,807,74,2014-08-03T00:05:00,0,20948701,197679
OK,74,57,807,74,2014-08-03T00:10:00,0,20949150,197679
OK,74,57,807,74,2014-08-03T00:15:00,0,20949598,197679
OK,74,57,807,74,2014-08-03T00:20:00,0,20950047,197679
OK,74,57,807,74,2014-08-03T00:25:00,0,20950496,197679